Kuiper-00122

operational
NORAD ID: 65951 Int'l Des: 2025-228 Owner: KUIP Country: US Constellation: kuiper
NOTLE

About Kuiper-00122

Description loading...

Live Position

Loading 3D Globe...

Upcoming Passes

Altitude History

Altitude vs Time

uPlot chart will show altitude changes over time

Two-Line Element Set

1 65951U 25228E 25298.93553968 .00040536 00000-0 12167-2 0 9996
2 65951 51.8801 250.8987 0006007 199.5160 160.5597 15.34036649 3078
Epoch: Oct 25, 2025 • Age: 10 hours

Current Status

Altitude 471.7 km
Velocity 7.64 km/s
Sub-Earth Point 50.37°N, 161.84°E
Launch Date Oct 14, 2025
Age 12 days
Type internet

Technical Details

Classification Payload
Mass 490.00 kg
Dry Mass 490.00 kg
Total Mass 490.00 kg
Length 1.80 m
Diameter 0.70 m
Span 5.00 m
Shape Box + 2 pan
Manufacturer KUIP
Bus Type Kuiper
Phase Status In Orbit
Owner/State KUIP/US

Large Constellations

Loading constellations...